Location: Newark
(47.5833°N, 8.1500°E)
Time: 17:27:48
(UTC+00:00)

Transit 2A - Pass Details

Date: 27 October 2020
Orbit: 595 x 964 km, 66.7° (Epoch: 29 November)

Event Time Altitude Azimuth Distance (km) Brightness Sun altitude
Rises 00:25:14 0° 195° (SSW) 3,609 - -52.0°
Reaches altitude 10° 00:27:49 10° 191° (S) 2,684 - -51.8°
Maximum altitude 00:33:57 53° 117° (ESE) 1,169 - -51.2°
Drops below altitude 10° 00:40:01 10° 42° (NE) 2,661 - -50.7°
Exits shadow 00:40:13 - 42° (NE) 2,729 9.3 -50.6°
Sets 00:42:34 0° 38° (NE) 3,575 10.1 -50.4°
